Weather in Podolovka

Russia / Amur Oblast     49°53′09″N   129°11′17″E
temp.,
°C
wind,
m/s
gust,
m/s
humid.,
%
clouds,
%
prec.,
mm/h
press.,
hPa
HPBL,
m
9 march, tue
tue900:00−4s51089100 0.0 1010277
03:00−5ssw41090100 0.0 1007311
06:00−8wsw349491 0.1 100558
09:00−6nw599695 1.2 1006447
12:00−7nnw101689100 2.9 1009698
15:00−6nnw10178196 2.9 1013933
18:00−5nw7158132 0.0 1017859
21:00−8nw6158132 0.0 1021534
10 march, wed
wed1000:00−11nw511860 0.0 1024203
03:00−14wnw33900 0.0 102624
06:00−15w33880 0.0 102621
09:00−10ssw478326 0.0 1025195
12:00−6ssw61182100 0.0 1021609
15:00−1ssw71275100 0.0 10181253
18:00−3sw61480100 0.0 1017637
21:00−6w478886 0.0 1019103
11 march, thu
thu1100:00−8wnw410910 0.0 1021163
03:00−9nw5118717 0.0 1024227
06:00−13nw49880 0.0 1027155
09:00−11nw47800 0.0 1029247
12:00−7wnw34750 0.0 1030365
15:00−5w34810 0.0 1029411
18:00−9ssw22860 0.0 102921
21:00−11sse23770 0.0 103021
12 march, fri
fri1200:00−12s34880 0.0 103037
03:00−13s34893 0.0 103033
06:00−13s338920 0.0 103027
09:00−10s359010 0.0 1030169
12:00−5ssw46900 0.0 1028292
15:00−1ssw610890 0.0 1025456
18:00−1sw513840 0.0 1024342
21:00−4sw512840 0.0 1024202
13 march, sat
sat1300:00−5sw513820 0.0 1024268
03:00−5sw615770 0.0 1023314
06:00−6sw615760 0.0 1022283
09:00−4sw716760 0.0 1019397
12:000sw815749 0.0 1018527
15:00+1sw4139033 0.0 1015564
18:00−1sw4981100 0.0 1015213
21:00−4ssw468091 0.0 101699